FW5335 Weather Reports


time (UTC)temp
F
wind
direction
speed
knots
gust
knots
rain 1hr
in
rain 24hr
in
rain mn
in
humidity
%
barometer
mb
20210302004032 38 90 0.9 2.6 0.00 0.00 0.00 89 1030.2
20210302003433 38 90 0.9 1.7 0.00 0.00 0.00 88 1030.3
20210302002037 39 90 0.9 3.5 0.00 0.00 0.00 88 1030.5
20210302001024 39 113 1.7 2.6 0.00 0.00 0.00 88 1030.4
20210302000034 39 90 1.7 2.6 0.00 0.00 0.00 88 1030.4
20210301235145 39 113 1.7 3.5 0.00 0.00 0.00 88 1030.4
20210301234022 39 90 1.7 3.5 0.00 0.00 0.00 88 1030.3
20210301233331 39 90 1.7 4.3 0.00 0.00 0.00 88 1030.4
20210301232025 40 68 0.9 2.6 0.00 0.00 0.00 88 1030.4
20210301231023 40 68 1.7 4.3 0.00 0.00 0.00 87 1030.4
20210301230036 40 68 1.7 4.3 0.00 0.00 0.00 87 1030.3
20210301225109 40 68 1.7 6.1 0.00 0.00 0.00 87 1030.2
20210301224022 40 90 1.7 4.3 0.00 0.00 0.00 87 1030.3
20210301223318 41 90 1.7 3.5 0.00 0.00 0.00 87 1030.1
20210301222029 41 68 2.6 5.2 0.00 0.00 0.00 87 1030.1
20210301221038 41 90 1.7 3.5 0.00 0.00 0.00 86 1030.0
20210301220023 41 90 0.9 5.2 0.00 0.00 0.00 86 1029.9
20210301215132 41 135 0.9 1.7 0.00 0.00 0.00 85 1029.8
20210301214032 42 135 0.9 2.6 0.00 0.00 0.00 86 1029.9
20210301213436 42 90 1.7 4.3 0.00 0.00 0.00 85 1029.8
20210301212042 42 90 1.7 3.5 0.00 0.00 0.00 85 1029.6
20210301211024 42 90 1.7 5.2 0.00 0.00 0.00 85 1029.5
20210301210030 42 45 1.7 5.2 0.00 0.00 0.00 85 1029.6
20210301205219 42 113 1.7 3.5 0.00 0.00 0.00 85 1029.4
20210301204030 43 90 0.9 5.2 0.00 0.00 0.00 84 1029.5
20210301203344 43 90 1.7 7.8 0.00 0.00 0.00 84 1029.4
20210301202021 43 90 2.6 6.1 0.00 0.00 0.00 84 1029.4
20210301201021 43 68 3.5 7.0 0.00 0.00 0.00 83 1029.4
20210301200032 44 68 1.7 7.0 0.00 0.00 0.00 83 1029.4
20210301195207 44 68 2.6 6.1 0.00 0.00 0.00 83 1029.5
20210301194027 44 90 1.7 3.5 0.00 0.00 0.00 83 1029.4
20210301193303 44 90 1.7 4.3 0.00 0.00 0.00 82 1029.5
20210301192030 44 90 1.7 5.2 0.00 0.00 0.00 82 1029.5
20210301191027 45 0 1.7 4.3 0.00 0.00 0.00 82 1029.4
20210301190040 45 23 1.7 3.5 0.00 0.00 0.00 81 1029.5
20210301185051 46 45 2.6 5.2 0.00 0.00 0.00 81 1029.4
20210301184019 46 45 2.6 5.2 0.00 0.00 0.00 80 1029.3
20210301183539 47 23 3.5 7.0 0.00 0.00 0.00 79 1029.2
20210301182032 47 23 4.3 10.4 0.00 0.00 0.00 79 1029.2
20210301181027 48 23 5.2 7.8 0.00 0.00 0.00 76 1029.0
20210301180033 49 23 1.7 3.5 0.00 0.00 0.00 73 1029.0
20210301175148 50 45 1.7 3.5 0.00 0.00 0.00 73 1029.0
20210301174027 50 45 1.7 4.3 0.00 0.00 0.00 72 1028.8
20210301173309 51 45 2.6 5.2 0.00 0.00 0.00 71 1028.9
20210301172021 51 45 2.6 7.0 0.00 0.00 0.00 70 1028.8
20210301171022 52 68 2.6 5.2 0.00 0.00 0.00 68 1028.9
20210301170033 52 68 3.5 6.1 0.00 0.00 0.00 66 1028.8
20210301165112 53 90 4.3 8.7 0.00 0.00 0.00 66 1028.9
20210301164026 53 68 5.2 10.4 0.00 0.00 0.00 65 1028.7
20210301163402 53 90 2.6 8.7 0.00 0.00 0.00 65 1028.9
20210301162032 53 90 4.3 8.7 0.00 0.00 0.00 65 1028.9
20210301161027 53 90 4.3 7.0 0.00 0.00 0.00 65 1028.9
20210301160037 53 90 7.0 12.2 0.00 0.00 0.00 64 1029.0
20210301155140 53 90 6.1 8.7 0.00 0.00 0.00 65 1029.0
20210301154020 53 68 5.2 11.3 0.00 0.00 0.00 65 1029.0
20210301153046 53 90 7.0 10.4 0.00 0.00 0.00 66 1029.3
20210301152114 53 90 4.3 9.6 0.00 0.00 0.00 66 1029.3
20210301151026 53 68 4.3 11.3 0.00 0.00 0.00 68 1029.3
20210301150023 53 90 6.1 10.4 0.00 0.00 0.00 67 1029.5
20210301145027 53 23 5.2 10.4 0.00 0.00 0.00 70 1029.5
20210301144026 53 90 4.3 7.8 0.00 0.00 0.00 71 1029.4
20210301143051 52 90 4.3 8.7 0.00 0.00 0.00 72 1029.6
20210301142026 52 90 5.2 8.7 0.00 0.00 0.00 71 1029.6
20210301141034 51 90 5.2 9.6 0.00 0.00 0.00 72 1029.6
20210301140048 51 68 4.3 9.6 0.00 0.00 0.00 73 1029.8
20210301135025 51 90 4.3 9.6 0.00 0.00 0.00 72 1029.8
20210301134313 50 68 6.1 10.4 0.00 0.00 0.00 74 1029.9
20210301133028 50 68 5.2 10.4 0.00 0.00 0.00 75 1030.2
20210301132022 49 68 4.3 9.6 0.00 0.00 0.00 76 1030.5
20210301131022 49 68 4.3 9.6 0.00 0.00 0.00 78 1030.5
20210301130031 47 90 5.2 9.6 0.00 0.00 0.00 79 1030.6
20210301125251 46 68 5.2 10.4 0.00 0.00 0.00 80 1030.9
20210301124035 46 90 3.5 7.8 0.00 0.00 0.00 81 1030.9
20210301123028 45 68 4.3 9.6 0.00 0.00 0.00 81 1031.1
20210301122039 45 90 4.3 9.6 0.00 0.00 0.00 82 1031.1
20210301121038 45 68 3.5 7.0 0.00 0.00 0.00 83 1031.2
20210301120030 44 68 4.3 9.6 0.00 0.00 0.00 83 1031.4
20210301115027 44 68 5.2 11.3 0.00 0.00 0.00 83 1031.4
20210301114036 44 90 6.1 12.2 0.00 0.00 0.00 83 1031.4
20210301113110 44 68 3.5 9.6 0.00 0.00 0.00 84 1031.4
20210301112042 43 90 4.3 8.7 0.00 0.00 0.00 85 1031.5
20210301111036 43 90 5.2 7.8 0.00 0.00 0.00 85 1031.6
20210301110034 43 90 3.5 8.7 0.00 0.00 0.00 86 1031.7
20210301105053 42 90 6.1 9.6 0.00 0.00 0.00 86 1031.7
20210301104026 42 90 5.2 9.6 0.00 0.00 0.00 87 1031.8
20210301103028 41 90 5.2 10.4 0.00 0.00 0.00 88 1031.7
20210301102026 41 90 3.5 6.1 0.00 0.00 0.00 89 1031.8
20210301101034 41 90 3.5 7.0 0.00 0.00 0.00 89 1031.8
20210301100030 41 90 6.1 11.3 0.00 0.00 0.00 89 1031.7
20210301095046 40 90 5.2 10.4 0.00 0.00 0.00 91 1031.7
20210301094022 40 113 2.6 6.1 0.00 0.00 0.00 91 1031.7
20210301093027 40 90 4.3 7.8 0.00 0.00 0.00 91 1031.7
20210301092022 40 90 6.1 9.6 0.00 0.00 0.00 92 1031.7
20210301091024 40 90 3.5 7.8 0.00 0.00 0.00 92 1031.9
20210301090036 40 68 4.3 9.6 0.00 0.00 0.00 92 1031.9
20210301085031 40 68 4.3 7.8 0.00 0.00 0.00 92 1032.0
20210301084034 39 90 3.5 8.7 0.00 0.00 0.00 93 1031.8
20210301083024 39 90 3.5 7.0 0.00 0.00 0.00 93 1031.9
20210301082041 39 113 3.5 7.8 0.00 0.00 0.00 93 1031.8
20210301081021 39 90 4.3 7.8 0.00 0.00 0.00 93 1031.9
20210301080028 39 90 3.5 7.8 0.00 0.00 0.00 93 1031.9
20210301075023 39 90 4.3 9.6 0.00 0.00 0.00 93 1031.9
20210301074030 38 113 6.1 9.6 0.00 0.00 0.00 93 1031.9
20210301073025 38 90 3.5 7.0 0.00 0.00 0.00 93 1031.7
20210301072025 38 90 3.5 7.8 0.00 0.00 0.00 93 1031.7
20210301071023 37 90 1.7 3.5 0.00 0.00 0.00 93 1031.7
20210301070038 37 68 1.7 4.3 0.00 0.00 0.00 92 1031.7
20210301065031 36 90 0.9 2.6 0.00 0.00 0.00 92 1031.8
20210301064025 36 90 1.7 2.6 0.00 0.00 0.00 92 1031.8
20210301063024 36 113 1.7 3.5 0.00 0.00 0.00 91 1031.7
20210301062031 36 113 0.9 2.6 0.00 0.00 0.00 92 1031.8
20210301061023 36 135 1.7 3.5 0.00 0.00 0.00 92 1031.8
20210301060057 35 113 2.6 3.5 0.00 0.00 0.00 92 1031.8
20210301055025 35 113 1.7 2.6 0.00 0.00 0.00 92 1031.8
20210301054024 34 113 1.7 2.6 0.00 0.00 0.00 92 1032.0
20210301053030 34 113 0.9 1.7 0.00 0.00 0.00 91 1032.0
20210301052026 34 113 0.9 2.6 0.00 0.00 0.00 90 1032.0
20210301051029 34 113 1.7 1.7 0.00 0.00 0.00 90 1031.9
20210301050028 34 0.0 0.9 0.00 0.00 0.00 90 1032.0
20210301045237 35 113 0.9 1.7 0.00 0.00 0.00 90 1031.8
20210301044033 35 113 1.7 2.6 0.00 0.00 0.00 90 1031.8
20210301043022 35 113 1.7 2.6 0.00 0.00 0.00 90 1031.9
20210301042027 35 113 2.6 3.5 0.00 0.00 0.00 90 1031.9
20210301041023 35 113 1.7 3.5 0.00 0.00 0.00 90 1031.9
20210301040037 35 113 1.7 3.5 0.00 0.00 0.00 90 1031.8
20210301035344 35 135 0.9 1.7 0.00 0.00 0.00 89 1032.0
20210301034029 35 135 0.9 1.7 0.00 0.00 0.00 89 1032.0
20210301033024 36 135 0.9 1.7 0.00 0.00 0.00 89 1032.0
20210301032023 36 135 1.7 1.7 0.00 0.00 0.00 89 1032.1
20210301031025 36 135 1.7 2.6 0.00 0.00 0.00 89 1032.1
20210301030026 35 135 1.7 2.6 0.00 0.00 0.00 88 1032.2
20210301025039 36 135 0.9 1.7 0.00 0.00 0.00 88 1032.4
20210301024025 36 135 1.7 2.6 0.00 0.00 0.00 88 1032.5
20210301023057 36 135 0.9 1.7 0.00 0.00 0.00 87 1032.5
20210301022023 37 135 0.9 1.7 0.00 0.00 0.00 87 1032.7
20210301021029 37 135 0.9 1.7 0.00 0.00 0.00 87 1032.5
20210301020041 38 135 1.7 2.6 0.00 0.00 0.00 87 1032.7
20210301015022 38 135 1.7 2.6 0.00 0.00 0.00 87 1032.8
20210301014029 38 113 2.6 3.5 0.00 0.00 0.00 88 1032.9
20210301013044 38 113 0.9 2.6 0.00 0.00 0.00 86 1033.0
20210301012029 38 113 0.9 1.7 0.00 0.00 0.00 86 1033.1
20210301011026 39 113 0.9 1.7 0.00 0.00 0.00 86 1033.1
20210301010056 39 113 1.7 3.5 0.00 0.00 0.00 85 1033.1
20210301005332 39 113 1.7 2.6 0.00 0.00 0.00 85 1033.2